Regional Weather Roundup
Issued by NWS

Home | Current Version | Previous Version | Text Only | Print | Product List | Glossary On
Versions: 1 2 3 4 5 6 7 8 9 10 11 12 13 14 15 16 17 18 19 20 21 22 23 24 25 26 27 28 29 30 31 32 33 34 35 36 37 38 39 40 41 42 43 44 45 46 47 48 49 50
000
ASMX46 KSGX 202211
RWRMX

MEXICAN WEATHER ROUNDUP
NATIONAL WEATHER SERVICE SAN DIEGO CA
300 PM PDT WED SEP 20 2017

BAJA CALIFORNIA

CITY           SKY/WX    TMP DP  RH WIND       PRES   REMARKS
ENSENADA NW      N/A     72  32  23 CALM      29.86F
LA PAZ         MOSUNNY   95  66  38 NW3       29.80F HX  98
LORETO         MOSUNNY   95  79  59 NE10      29.76F HX 112
MEXICALI       SUNNY     97  41  14 SW6       29.70F
S.J. DEL CABO  MOSUNNY   88  70  55 SE12      29.82F
TIJUANA        SUNNY     73  57  56 W8        29.90F

NORTHWESTERN MEXICO

CITY           SKY/WX    TMP DP  RH WIND       PRES   REMARKS
CHIHUAHUA      MOSUNNY   88  55  33 N3        30.01F
CULIACAN       PTSUNNY   95  79  59 W9        29.75F HX 112
GUAYMAS        MOSUNNY   91  81  70 CALM      29.73F HX 110
HERMOSILLO     MOSUNNY  100  72  39 S8        29.80F HX 109
JUAREZ         MOSUNNY   90  45  20 W17       29.97F
LOS MOCHIS     SUNNY     91  73  55 SW14      29.78F HX 100
OBREGON        MOSUNNY   99  68  36 SW12      29.74F HX 104

NORTHEASTERN MEXICO

CITY           SKY/WX    TMP DP  RH WIND       PRES   REMARKS
MATAMOROS      PTSUNNY   91  75  59 SE16      29.82F HX 102
MONCLOVA       PTSUNNY   93  61  33 N17       29.87
MONTERREY      PTSUNNY   93  66  40 NE8       29.81F HX  96
NUEVO LAREDO   MOSUNNY   99  64  32 SE9       29.77F HX 101
PIEDRAS NEGRAS MOSUNNY  100  68  34 SE6       29.81S HX 106
REYNOSA        PTSUNNY   91  64  40 SE17      29.79F
SALTILLO         N/A    N/A N/A N/A MISG        N/A
TORREON        PTSUNNY   91  55  29 NW3       29.94F
VICTORIA       MOSUNNY   97  57  26 S17       29.78F HX  95

WESTERN MEXICO

CITY           SKY/WX    TMP DP  RH WIND       PRES   REMARKS
AGUASCALIENTES MOSUNNY   82  50  32 NE8       30.12F
COLIMA         PTSUNNY   81  75  83 SW9       29.91F
DURANGO        PTSUNNY   79  55  44 N7        30.12F
GUADALAJARA    PTSUNNY   82  61  47 SW5       30.05F
MANZANILLO       N/A    N/A N/A N/A MISG        N/A
MAZATLAN       MOSUNNY   90  81  74 W12       29.77F HX 108
PTO. VALLARTA  PTSUNNY   90  81  74 W7        29.76F HX 108
TEPIC          PTSUNNY   81  72  74 CALM      29.93F
URUAPAN        CLOUDY    70  66  88 CALM      30.07F
ZACATECAS      MOSUNNY   72  55  56 SW9       30.19S

CENTRAL MEXICO

CITY           SKY/WX    TMP DP  RH WIND       PRES   REMARKS
CUERNAVACA     PTSUNNY   77  66  69 CALM      30.00F
LEON           MOSUNNY   82  54  36 CALM      30.13F
MEXICO CITY    CLOUDY    75  54  46 E9        30.17F
MORELIA        MOSUNNY   82  55  39 W3        30.08F
POZA RICA      MOSUNNY   95  77  55 E7        29.88F HX 109
PUEBLA         CLOUDY    68  59  73 S18       30.21S
QUERETARO      MOSUNNY   82  52  34 E8        30.14F
S. LUIS POTOSI MOSUNNY   82  45  26 E14       30.11F
TAMPICO        MOSUNNY   88  77  70 E14       29.82F HX 100
TOLUCA         CLOUDY    64  54  68 S15       30.25F
VERACRUZ       PTSUNNY   84  77  79 E3        29.82S

SOUTHERN MEXICO

CITY           SKY/WX    TMP DP  RH WIND       PRES   REMARKS
ACAPULCO       CLOUDY    82  77  83 W6        29.79F
B. DE HUATULCO CLOUDY   N/A N/A N/A E12       29.85S
MINATITLAN     MOSUNNY   90  81  74 CALM      29.77F HX 108
OAXACA         CLOUDY    75  59  57 W3        30.12R
PTO. ESCONDIDO DRIZZLE   77  75  94 N9        29.91F
TAPACHULA      PTSUNNY   86  79  79 S7        29.79F HX  99
TUX. GUTIERREZ PTSUNNY   88  72  58 CALM      29.85F
VILLAHERMOSA   PTSUNNY   90  75  62 N6        29.82F HAZE    HX 100
ZIHUATANEJO    PTSUNNY   84  77  79 SW12      29.79F

YUCATAN PENINSULA

CITY           SKY/WX    TMP DP  RH WIND       PRES   REMARKS
CAMPECHE       MOSUNNY   93  77  59 N12       29.78F HX 107
CANCUN         MOSUNNY   86  77  74 E8        29.88S HX  97
CHETUMAL       MOSUNNY   90  75  62 SE17      29.82F HX 100
C. DEL CARMEN  MOSUNNY  N/A N/A N/A N9        29.81F
COZUMEL        MOSUNNY   88  75  66 SE9       29.86S HX  97
MERIDA         PTSUNNY   93  73  52 NE6       29.83F HX 102

$$





USA.gov is the U.S. government's official web portal to all federal, state and local government web resources and services.